Notices

What's New in latest Release from April 7th, 2021:

- Updated Glossary, including Speed of Maximum Gust, and Total Hourly Precipitation

- Updated national and regional climate services offices contacts and prices information

- Addition of station inventory lists for 1981-2010, 1971-2000, and 1961-1990 Normals.

If you haven't already, please take our survey and provide feedback about our website: https://eccc.sondage-survey.ca/f/LanguageSelection.aspx?s=442ca660-fcf1-47c0-95a9-59707d6fd709

Hourly Data Report for October 02, 2019

CARBERRY CS
MANITOBA
Current Station Operator: ECCC - MSC

49°54'20.900" N
99°21'26.800" W
383.50 m
5010547
71170
WZE

Download Data

Hourly Data (October 2019)
Hourly Data Report for October 2, 2019
TIME
LST
Temp Definition
°C
Dew Point Definition
°C
Rel Hum Definition
%
Precip. Amount Definition
mm

Wind Dir Definition
10's deg

Wind Spd Definition
km/h
Visibility Definition
km
Stn Press Definition
kPa
Hmdx Definition


Wind Chill Definition


Weather Definition


00:00 2.9 2.6 98 0.0 33 9   97.93     LegendNANA
01:00 2.8 2.2 96 0.0 33 8   97.95     LegendNANA
02:00 2.6 2.6 100 0.0 36 8   97.96     LegendNANA
03:00 2.4 2.4 100 0.0 35 4   97.96     LegendNANA
04:00 2.5 0.5 86 0.0 36 7   97.98     LegendNANA
05:00 2.7 0.8 87 0.0 2 6   98.02     LegendNANA
06:00 2.5 1.4 93 0.0 3 3   97.98     LegendNANA
07:00 2.0 2.0 100 0.0 7 3   98.02     LegendNANA
08:00 2.5 2.5 100 0.0 4 5   98.02     LegendNANA
09:00 3.1 3.0 100 0.0 3 14   98.02     LegendNANA
10:00 3.8 2.8 93 0.0 6 9   98.01     LegendNANA
11:00 4.0 1.8 86 0.0 6 12   97.97     LegendNANA
12:00 4.9 1.4 78 0.0 5 12   97.90     LegendNANA
13:00 4.5 1.4 80 0.0 6 11   97.88     LegendNANA
14:00 4.8 0.8 75 0.0 7 13   97.84     LegendNANA
15:00 4.3 1.1 80 0.0 7 8   97.84     LegendNANA
16:00 4.1 0.6 78 0.0 8 8   97.78     LegendNANA
17:00 4.1 0.5 77 0.0 1 6   97.77     LegendNANA
18:00 3.9 2.0 88 0.0 4 11   97.78     LegendNANA
19:00 3.5 3.5 100 0.0 5 7   97.76     LegendNANA
20:00 3.4 2.0 90 0.0 4 7   97.77     LegendNANA
21:00 3.4 1.6 88 0.0 3 6   97.74     LegendNANA
22:00 3.4 1.6 88 0.0 2 4   97.75     LegendNANA
23:00 3.4 1.6 88 0.0 2 6   97.74     LegendNANA

Notes on Data Quality.

Legend

  • E = Estimated
  • M = Missing
  • NA = Not Available*
  • [empty] = Indicates an unobserved value
Date modified: